Retour au catalogue

SL-18 R/B

ActifSSO
NORAD 26703·ROCKET BODY·🇷🇺 Russia

Lancé Feb 20, 2001 depuis Svobodny Cosmodrome

Loading…

Prochains Passages (prochaines 24 heures)

TLE

FraisSource: Space-Track

Époque: Sep 14, 2026, 14:11 UTC

1 26703U 01007B   26257.59121107  .00001796  00000-0  12062-3 0  9991
2 26703  97.6827 276.2234 0010259  63.7905 296.4376 15.08060629674610

Suivez SL-18 R/B en temps réel avec AllMySat

Download on the App Store